Temp
80 80 79 80 79 79 77 76 76 76 76 76 77 75 75 73 73 71 72 71 68 67 67 66 64 65 65 65 65 65 63 63 60 62 64 65 64 64 66 64 65 64 61
80 78 77 77 77 76 75 75 77 76 77 78 77 76 76 76 73 72 71 71 69 67 65 63 64 67 65 65 65 65 64 64 62 60 62 63 63 64 65 65 65 65 62
75 73 74 72 74 75 74 76 77 77 77 78 78 77 75 73 71 73 73 71 69 67 65 63 64 64 64 64 65 64 64 64 63 62 60 61 61 62 60 60 60 60 61
75 75 74 75 76 76 76 77 77 78 77 77 76 76 74 75 75 74 73 70 67 66 64 63 65 66 66 65 65 65 65 63 63 61 60 59 59 59 59 57 56 58 57
76 77 76 76 77 77 76 76 77 76 76 75 73 73 73 73 71 70 70 67 65 62 62 63 65 64 61 63 65 65 65 63 61 60 58 57 57 57 57 57 55 56 57
79 78 78 78 78 76 76 75 73 72 73 72 72 72 68 70 50 53 64 66 65 64 63 63 64 59 58 56 58 58 63 63 60 59 57 57 57 56 57 57 56 55 53
80 80 79 78 77 73 75 73 70 71 71 70 71 70 67 63 49 51 58 67 64 63 64 64 66 65 64 65 54 55 55 57 61 63 58 58 57 58 58 57 58 57 55
80 80 80 78 75 72 72 69 69 71 70 69 69 69 67 60 50 51 52 66 64 62 64 66 66 66 65 67 67 66 65 64 64 65 62 60 60 61 61 62 60 58 58
82 80 77 75 73 72 71 69 70 70 68 69 70 69 66 62 48 50 58 66 62 61 62 65 65 64 53 52 66 63 62 60 54 54 53 50 48 51 58 60 58 57 55
82 78 78 76 74 72 70 69 70 70 70 69 69 68 58 62 47 51 61 65 61 59 60 61 50 60 47 49 64 63 60 60 59 57 56 52 54 53 53 62 61 58 57
82 81 80 75 75 71 70 71 71 70 70 68 67 66 65 63 57 51 53 63 61 60 59 60 58 45 47 48 55 64 60 61 56 59 59 59 58 59 60 62 62 61 58
81 81 77 75 78 75 70 69 71 71 67 66 65 64 64 63 53 49 47 53 55 61 60 60 51 44 45 47 53 45 48 55 60 58 57 57 57 58 58 59 60 61 63
79 75 77 76 75 73 69 67 68 68 66 68 65 64 62 63 59 45 45 47 51 62 61 48 43 42 43 46 45 46 51 60 58 56 56 56 58 59 60 59 60 61 61
74 75 73 72 73 72 73 69 67 66 66 66 65 65 62 61 62 61 61 58 49 51 49 52 49 50 50 52 54 57 62 61 59 57 58 59 58 58 59 60 59 60 59
76 73 72 71 70 64 58 58 63 55 58 66 65 66 62 60 61 55 61 62 60 53 56 57 57 57 58 61 61 62 62 62 60 60 59 59 59 59 60 61 61 61 60
76 73 73 73 72 71 67 60 43 43 41 43 52 63 67 51 43 44 46 45 45 46 58 57 56 58 59 61 60 60 61 59 62 62 61 61 61 60 61 62 62 62 60
76 72 76 73 74 74 72 69 63 54 43 41 44 49 51 46 43 44 44 43 42 47 59 58 57 60 60 62 61 61 61 63 64 65 64 62 64 64 59 64 64 63 63
74 64 79 75 76 74 72 71 72 68 66 62 46 46 42 42 42 42 42 47 57 56 63 61 60 61 60 63 65 64 65 64 64 64 65 66 66 66 65 66 66 65 65
79 77 75 78 78 73 71 70 74 71 69 61 56 49 43 40 40 41 42 66 64 62 64 63 63 63 64 66 66 67 67 67 66 65 66 67 68 68 67 68 68 58 60
79 59 64 77 75 70 75 72 67 71 69 67 64 58 53 55 60 60 63 66 65 67 67 67 67 68 68 68 67 66 67 65 67 66 67 68 69 70 69 70 69 69 66
85 73 67 79 75 78 71 74 75 75 72 71 68 61 47 64 63 64 65 67 70 70 68 69 71 71 71 71 68 67 68 67 68 67 67 68 69 69 70 70 71 70 69
82 84 83 79 75 78 77 76 75 73 72 73 71 60 41 70 67 68 68 69 72 74 75 72 73 73 72 72 70 68 69 69 69 70 69 71 71 72 73 71 71 70 69
72 84 75 71 78 67 75 77 76 77 76 75 72 67 66 69 68 71 70 71 69 66 67 68 66 63 63 62 59 58 58 59 63 73 73 73 73 72 72 71 71 70 69
67 76 76 71 78 78 70 73 71 63 67 77 75 73 69 65 64 60 59 59 61 60 60 58 56 52 51 51 52 51 46 43 57 61 68 71 73 69 73 73 73 72 71
58 64 71 66 69 72 69 65 68 69 67 68 68 70 69 66 64 64 62 60 60 58 55 54 54 51 46 46 44 42 36 34 44 38 67 70 70 70 72 72 72 71 71
57 55 53 57 62 62 60 60 59 60 60 58 59 60 60 59 59 58 59 59 59 57 55 51 48 48 47 43 40 35 35 36 43 40 63 63 59 58 59 64 64 65 65
MSLP
995.31 996.07 996.70 997.33 997.75 998.39 999.20 999.84 1000.49 1001.17 1001.87 1002.44 1002.93 1003.32 1003.76 1004.29 1004.76 1005.27 1005.56 1005.99 1006.53 1006.91 1007.32 1007.70 1008.15 1008.24 1008.37 1008.37 1008.59 1008.79 1009.14 1009.45 1009.82 1010.34 1010.42 1010.89 1011.27 1011.47 1011.86 1012.37 1012.90 1013.71 1014.47
995.42 996.22 996.97 997.54 998.16 998.79 999.45 1000.17 1000.65 1001.36 1001.85 1002.32 1002.78 1003.30 1003.73 1004.09 1004.54 1005.11 1005.63 1005.72 1006.25 1006.66 1007.15 1007.76 1008.04 1008.13 1008.10 1008.19 1008.42 1008.71 1008.91 1009.33 1009.62 1010.39 1011.06 1011.56 1011.83 1012.05 1012.56 1013.00 1013.53 1014.20 1014.72
996.15 996.76 997.39 998.04 998.62 999.15 999.75 1000.33 1000.86 1001.51 1001.89 1002.16 1002.62 1003.16 1003.56 1004.13 1004.68 1005.03 1005.21 1005.52 1005.91 1006.33 1007.02 1007.52 1007.81 1008.01 1008.09 1008.07 1008.38 1008.57 1008.84 1009.27 1009.69 1010.41 1011.56 1012.26 1012.60 1012.94 1013.43 1013.81 1014.30 1014.79 1015.36
996.54 997.20 997.84 998.41 999.07 999.64 1000.14 1000.62 1001.11 1001.55 1002.00 1002.40 1002.82 1003.24 1003.68 1004.07 1004.36 1004.73 1005.21 1005.57 1006.02 1006.50 1007.01 1007.36 1007.60 1007.72 1007.70 1007.76 1008.15 1008.37 1008.75 1009.24 1009.87 1010.85 1011.80 1012.50 1012.98 1013.53 1013.91 1014.40 1015.15 1015.62 1016.14
996.78 997.34 998.09 998.74 999.36 999.90 1000.38 1000.86 1001.28 1001.78 1002.07 1002.50 1003.01 1003.46 1003.86 1004.40 1004.95 1005.15 1005.43 1005.92 1006.37 1006.85 1007.25 1007.49 1007.54 1007.69 1007.64 1007.57 1007.79 1008.21 1008.65 1009.30 1010.24 1011.08 1012.07 1012.71 1013.30 1013.76 1014.24 1014.91 1015.44 1016.10 1016.82
996.53 997.48 998.26 998.92 999.51 1000.04 1000.55 1001.08 1001.61 1001.98 1002.31 1002.79 1003.26 1003.78 1004.62 1005.26 1005.90 1005.77 1005.84 1006.37 1006.60 1006.90 1007.23 1007.45 1007.58 1007.84 1007.79 1007.72 1007.95 1008.09 1008.46 1009.29 1010.31 1011.14 1012.03 1012.59 1013.28 1013.84 1014.51 1014.97 1015.48 1016.22 1017.27
996.68 997.54 998.29 998.98 999.63 1000.19 1000.88 1001.44 1002.01 1002.30 1002.77 1003.24 1003.65 1004.11 1005.08 1005.87 1006.21 1006.17 1006.31 1006.39 1006.82 1007.04 1007.21 1007.28 1007.36 1007.74 1007.71 1007.98 1008.25 1008.53 1008.90 1009.39 1009.98 1010.80 1011.77 1012.49 1013.24 1013.78 1014.31 1015.13 1015.79 1016.22 1016.80
996.94 997.50 998.35 999.20 1000.02 1000.69 1001.20 1001.86 1002.20 1002.63 1003.15 1003.55 1003.99 1004.65 1005.44 1006.30 1006.63 1006.63 1006.57 1006.61 1007.08 1007.36 1007.33 1007.37 1007.45 1007.70 1007.84 1008.13 1008.42 1008.95 1009.48 1010.03 1010.59 1011.07 1011.76 1012.69 1013.32 1013.97 1014.33 1014.78 1015.41 1016.35 1017.16
996.64 997.43 998.75 999.52 1000.31 1000.94 1001.54 1002.05 1002.48 1002.91 1003.57 1003.99 1004.30 1004.90 1005.65 1006.50 1006.95 1006.79 1006.69 1006.86 1007.40 1007.77 1007.89 1007.85 1007.98 1008.27 1008.50 1008.64 1008.73 1009.44 1010.03 1010.78 1010.96 1011.35 1012.07 1013.01 1013.70 1014.08 1014.34 1014.98 1015.98 1016.41 1017.29
996.58 997.87 998.87 999.63 1000.39 1001.10 1001.81 1002.16 1002.71 1003.27 1003.59 1004.08 1004.57 1005.16 1005.94 1006.63 1007.06 1006.93 1006.90 1007.16 1007.73 1008.10 1008.36 1008.51 1008.53 1008.62 1009.01 1009.15 1009.27 1009.75 1010.48 1011.21 1011.78 1012.65 1013.28 1013.79 1014.02 1014.57 1014.74 1014.82 1015.45 1016.05 1016.90
997.16 997.92 998.67 999.67 1000.34 1001.15 1001.91 1002.33 1002.86 1003.26 1003.58 1004.27 1004.96 1005.47 1006.13 1006.67 1007.25 1007.28 1007.45 1007.62 1007.92 1008.29 1008.65 1008.91 1009.29 1009.30 1009.41 1009.46 1009.65 1010.01 1010.76 1011.51 1012.16 1012.80 1013.42 1013.98 1014.44 1014.82 1014.95 1015.11 1015.43 1015.88 1016.42
997.51 998.11 998.92 999.75 1000.29 1001.44 1001.99 1002.50 1003.08 1003.40 1003.93 1004.51 1005.24 1005.93 1006.51 1007.08 1007.44 1007.70 1007.75 1007.76 1008.10 1008.36 1008.84 1009.31 1009.92 1009.80 1009.90 1010.07 1010.37 1010.76 1011.21 1011.91 1012.52 1013.19 1013.69 1014.17 1014.61 1015.00 1015.29 1015.45 1015.63 1015.98 1016.05
997.80 998.57 999.18 999.87 1000.54 1001.42 1002.21 1002.81 1003.33 1003.68 1004.13 1004.63 1005.24 1005.92 1006.73 1007.32 1007.87 1008.16 1008.09 1008.08 1008.14 1008.43 1009.06 1009.74 1010.06 1010.24 1010.51 1010.83 1011.07 1011.37 1011.71 1012.28 1012.85 1013.43 1013.90 1014.34 1014.74 1015.07 1015.37 1015.74 1015.97 1016.13 1016.29
998.27 998.90 999.76 1000.33 1000.93 1001.68 1002.33 1003.11 1003.50 1003.80 1004.25 1004.54 1005.16 1005.90 1006.71 1007.41 1007.85 1008.31 1008.38 1008.68 1008.96 1009.53 1009.89 1010.19 1010.44 1010.71 1010.94 1011.30 1011.65 1011.78 1012.05 1012.51 1012.95 1013.42 1013.89 1014.37 1014.92 1015.24 1015.53 1015.81 1016.09 1016.27 1016.57
998.32 999.43 1000.09 1000.81 1001.47 1002.66 1003.79 1004.26 1004.37 1004.54 1004.73 1004.47 1005.03 1005.66 1006.53 1007.42 1007.86 1007.88 1008.12 1008.75 1009.25 1009.74 1010.05 1010.43 1010.79 1011.20 1011.49 1011.54 1011.60 1011.91 1012.19 1012.57 1013.03 1013.46 1013.84 1014.21 1014.66 1015.11 1015.33 1015.52 1015.74 1016.03 1016.24
998.53 999.48 1000.04 1000.64 1001.46 1002.36 1003.46 1004.80 1005.25 1005.29 1005.05 1004.54 1004.86 1005.29 1006.13 1007.16 1007.86 1008.14 1008.51 1009.08 1009.76 1010.05 1010.29 1010.63 1011.04 1011.28 1011.32 1011.40 1011.63 1011.98 1012.32 1012.64 1012.91 1013.33 1013.77 1014.07 1014.26 1014.77 1015.08 1015.29 1015.46 1015.55 1015.64
998.19 999.20 999.52 1000.26 1000.95 1001.61 1002.54 1003.67 1005.05 1005.96 1005.57 1005.74 1005.66 1005.93 1006.55 1007.74 1008.20 1008.65 1008.94 1009.51 1009.85 1010.16 1010.42 1010.86 1011.17 1011.26 1011.38 1011.38 1011.60 1011.88 1012.13 1012.42 1012.65 1012.96 1013.35 1013.69 1013.97 1014.34 1014.62 1014.80 1014.99 1015.15 1015.17
998.00 998.37 998.75 1000.04 1000.64 1001.34 1001.93 1002.68 1003.66 1004.64 1005.49 1006.54 1007.41 1007.45 1007.72 1008.17 1008.61 1008.99 1009.19 1009.75 1010.25 1010.07 1010.15 1010.51 1010.89 1011.01 1011.12 1011.15 1011.26 1011.58 1011.93 1012.21 1012.52 1012.70 1013.03 1013.23 1013.45 1013.71 1013.97 1014.12 1014.26 1014.37 1014.32
997.95 998.38 999.38 999.94 1000.55 1001.28 1001.85 1002.36 1002.85 1003.70 1004.90 1006.48 1007.72 1008.40 1008.87 1009.01 1009.14 1009.13 1009.17 1009.13 1009.31 1009.46 1009.68 1010.02 1010.40 1010.69 1010.78 1010.65 1010.78 1010.96 1011.40 1011.74 1012.08 1012.36 1012.50 1012.68 1012.76 1012.82 1012.94 1012.96 1013.05 1013.08 1013.17
998.44 998.76 999.57 999.94 1000.54 1001.22 1001.75 1002.49 1003.31 1003.63 1004.57 1005.75 1007.02 1008.36 1008.99 1009.20 1009.45 1009.62 1009.48 1008.91 1008.81 1008.86 1009.15 1009.48 1009.93 1010.12 1010.23 1010.25 1010.48 1010.84 1011.14 1011.47 1011.68 1011.84 1011.93 1011.97 1011.99 1012.07 1012.33 1012.24 1012.22 1012.31 1012.45
998.07 999.14 999.58 1000.17 1000.56 1001.04 1001.75 1002.17 1002.58 1003.00 1003.90 1004.74 1006.24 1007.89 1008.25 1008.81 1009.06 1009.08 1008.96 1008.71 1008.45 1008.49 1008.77 1009.03 1009.30 1009.60 1009.83 1010.00 1010.18 1010.53 1010.83 1011.09 1011.29 1011.46 1011.62 1011.64 1011.66 1011.64 1011.43 1011.20 1011.37 1011.45 1011.59
997.91 998.49 998.92 999.79 1000.20 1000.82 1001.26 1001.83 1002.50 1002.97 1003.68 1004.35 1005.80 1007.70 1008.13 1008.35 1008.52 1008.31 1008.21 1008.20 1008.08 1007.87 1008.11 1008.54 1008.79 1008.99 1009.20 1009.53 1009.83 1010.23 1010.61 1010.69 1010.83 1010.87 1010.97 1010.88 1010.94 1010.90 1010.65 1010.70 1010.90 1011.01 1011.09
999.00 998.33 999.13 999.74 1000.24 1000.61 1001.03 1001.35 1002.10 1002.73 1003.51 1004.34 1005.44 1007.01 1008.05 1007.96 1007.85 1007.86 1007.63 1007.42 1008.51 1008.76 1009.16 1008.88 1009.64 1010.31 1010.59 1010.78 1011.12 1011.48 1011.71 1011.76 1011.06 1009.99 1009.91 1009.88 1009.88 1009.86 1009.91 1009.99 1010.18 1010.39 1010.50
1000.18 999.55 999.70 1000.30 1000.36 1000.50 1001.86 1002.08 1002.23 1003.47 1004.11 1004.62 1005.75 1006.60 1007.44 1008.29 1008.56 1009.11 1009.31 1009.63 1010.09 1010.04 1010.31 1011.18 1011.90 1012.44 1012.56 1012.82 1013.34 1013.27 1013.14 1012.75 1011.71 1010.79 1010.10 1009.93 1009.57 1009.39 1009.39 1009.45 1009.59 1009.66 1009.77
1002.35 1002.41 1001.89 1003.05 1002.37 1002.26 1003.07 1004.54 1004.40 1005.17 1005.87 1006.37 1007.14 1007.59 1008.24 1008.54 1009.33 1009.52 1010.13 1010.75 1010.81 1011.52 1012.33 1012.79 1012.87 1013.41 1013.52 1013.59 1014.17 1013.52 1013.39 1012.88 1012.30 1011.71 1010.57 1010.30 1010.17 1010.00 1009.94 1009.79 1010.01 1010.05 1009.95
1004.57 1004.41 1004.29 1004.38 1004.62 1005.40 1005.78 1006.39 1006.60 1007.35 1008.11 1008.65 1009.28 1009.89 1010.13 1010.66 1011.14 1011.39 1011.49 1011.64 1012.32 1013.18 1013.69 1014.25 1014.76 1014.90 1015.10 1015.38 1015.25 1014.88 1014.25 1013.43 1012.63 1012.06 1011.44 1011.63 1011.85 1011.97 1011.75 1011.28 1011.14 1011.10 1011.12
Wind_Speed
11 11 11 9 10 12 12 10 9 10 11 10 9 6 6 6 6 6 3 5 5 6 5 5 4 2 4 3 2 3 4 3 4 3 4 5 6 6 6 7 8 7 6
10 11 12 12 11 11 12 11 10 10 8 8 8 9 8 5 6 5 4 5 6 7 7 6 4 3 5 5 4 5 3 4 5 9 5 3 5 5 7 8 8 6 7
12 11 11 9 10 10 10 10 9 8 6 7 6 5 5 6 6 6 5 4 5 6 7 6 5 5 6 5 4 5 4 4 5 8 4 3 5 4 8 9 9 9 6
12 12 12 11 11 10 10 9 8 6 6 6 6 6 7 5 5 3 4 1 6 6 5 4 3 6 6 7 6 6 5 5 6 8 6 4 4 5 6 7 8 6 7
14 13 12 11 11 10 9 7 7 7 6 6 7 6 6 6 6 5 6 6 6 5 4 4 5 4 9 4 4 6 6 7 8 8 5 4 5 4 6 5 8 9 6
15 14 12 11 10 8 7 7 7 6 8 8 7 6 10 7 7 8 7 5 6 6 5 4 5 6 7 9 7 5 8 11 10 8 5 8 6 8 8 8 10 9 5
13 12 11 10 9 6 8 6 7 7 7 6 6 7 9 6 8 7 6 5 6 5 4 4 4 4 7 7 9 12 9 13 11 10 10 8 8 10 9 10 10 7 6
13 13 12 11 9 8 6 8 6 6 7 5 7 9 8 6 6 5 3 7 6 3 1 2 4 5 5 6 6 9 8 9 10 8 9 8 9 9 9 10 10 10 9
13 15 13 12 8 8 6 8 6 6 6 5 6 10 9 6 4 3 3 6 6 4 4 4 5 6 4 8 8 10 9 7 9 14 15 15 12 12 11 12 10 11 8
13 16 15 13 10 7 10 8 5 6 5 5 8 9 10 7 3 4 4 5 5 3 3 4 4 7 8 7 10 10 9 8 11 11 10 10 9 9 9 9 11 11 9
13 10 9 12 10 9 9 7 5 5 7 9 10 8 8 7 4 5 7 5 4 4 4 3 5 9 9 9 10 9 11 10 11 10 9 8 7 6 4 5 6 9 10
10 10 11 13 10 10 9 5 4 4 9 9 9 7 6 6 6 6 7 7 6 5 5 4 5 8 11 12 11 15 16 11 8 7 7 7 7 6 4 4 4 4 3
10 8 9 6 9 12 8 5 5 5 6 7 7 8 5 4 5 8 9 8 5 5 5 8 10 12 13 12 14 14 12 8 8 7 6 5 5 5 5 5 3 4 4
7 10 10 8 9 7 6 5 4 5 6 6 7 7 6 4 6 5 5 7 12 10 11 6 8 9 9 9 7 6 6 7 7 7 7 6 6 5 5 4 4 4 4
11 12 10 7 8 9 8 5 5 4 2 5 7 7 8 5 4 5 7 7 7 7 8 6 5 6 7 6 4 6 5 7 7 7 7 6 6 5 5 4 3 4 5
11 10 8 9 8 8 8 8 14 8 7 10 9 6 8 11 11 12 16 18 15 10 6 6 6 5 4 4 6 7 6 7 7 8 7 6 7 7 6 4 4 4 4
9 11 9 10 8 8 9 8 9 6 18 18 13 15 15 13 14 15 17 15 10 4 7 5 5 4 5 3 4 6 7 6 8 8 7 6 7 7 6 5 5 5 6
6 12 6 11 9 7 6 7 9 8 8 7 13 9 12 14 14 13 15 12 4 2 7 8 6 5 4 5 6 7 8 6 5 5 6 6 7 8 7 8 8 9 8
7 4 7 10 8 8 5 4 7 8 10 9 7 7 8 10 8 9 10 5 5 5 6 7 7 6 6 4 5 5 7 7 5 5 5 6 8 6 6 6 6 9 8
10 15 5 9 10 7 6 6 7 8 10 10 9 7 4 5 6 6 4 3 2 5 6 8 8 7 6 4 5 5 6 5 6 5 5 5 6 6 8 8 7 5 6
10 10 9 5 8 9 7 8 6 8 7 9 10 10 10 8 6 6 5 3 3 5 4 5 6 7 6 5 4 4 4 3 6 6 5 5 6 6 7 4 4 5 5
3 11 8 8 10 9 10 9 8 6 8 10 11 10 11 7 7 7 6 6 7 6 7 7 7 7 6 6 5 5 8 8 6 7 9 9 9 11 8 5 5 5 5
9 7 6 5 7 11 9 11 11 10 10 10 11 11 8 6 5 4 6 4 5 6 9 8 10 10 11 12 10 9 7 6 7 4 5 5 4 3 4 5 5 5 5
9 6 9 3 4 8 12 6 10 11 5 9 9 9 7 8 12 14 13 12 10 13 13 13 13 15 11 11 9 8 9 9 8 7 8 5 5 6 7 6 5 7 7
13 10 14 12 11 13 17 9 14 14 13 13 11 12 13 12 11 10 13 12 13 14 17 13 12 16 20 21 17 18 15 12 10 8 6 8 10 11 10 9 11 11 11
12 13 13 12 12 12 13 12 14 13 13 13 12 12 13 12 12 12 12 15 13 13 15 13 15 19 19 15 17 15 13 14 15 14 11 12 12 11 10 11 15 10 12
Wind_Direction
159 168 153 167 131 132 139 134 136 144 145 155 156 144 156 152 178 176 144 136 150 161 184 127 142 168 236 239 212 185 189 164 162 77 107 119 116 121 110 107 125 116 121
130 129 128 123 126 120 117 130 136 134 147 156 153 172 180 156 163 142 205 215 191 188 137 147 191 239 244 222 198 218 187 148 147 128 118 90 96 86 80 95 109 112 119
122 114 117 119 123 121 123 128 134 148 167 149 120 154 153 119 151 192 197 213 172 194 152 166 195 232 264 217 186 202 148 158 142 119 102 80 82 90 77 72 79 90 94
127 134 134 133 135 133 135 144 138 135 127 132 168 118 122 142 181 146 122 108 105 134 140 160 234 234 234 207 188 186 152 150 129 105 102 88 83 82 90 104 92 90 95
149 137 133 134 137 136 139 131 134 141 163 136 100 106 118 72 46 49 78 66 116 124 140 190 254 67 70 85 182 156 156 127 115 119 122 118 116 121 118 111 107 108 89
129 133 139 146 142 130 132 145 144 111 94 102 107 102 83 80 64 58 103 135 151 162 159 200 165 131 93 81 69 155 150 133 133 134 133 141 133 118 129 127 127 128 123
131 135 140 142 136 123 121 144 115 114 104 115 112 98 97 99 71 66 43 118 109 104 145 180 162 101 148 106 82 97 89 116 139 144 150 145 138 143 135 135 141 129 122
148 155 128 118 115 120 148 112 117 114 105 104 99 105 102 88 78 59 8 116 109 105 89 109 107 95 66 118 136 111 88 112 123 128 121 127 129 140 137 134 124 112 106
158 137 133 132 131 141 125 126 127 114 129 146 122 109 108 105 78 38 130 126 112 101 81 38 37 101 97 29 112 101 92 79 85 111 113 116 123 127 128 124 133 135 129
129 131 144 151 148 138 130 131 122 134 158 135 104 105 105 116 90 64 99 106 112 106 82 76 13 121 89 44 121 118 107 109 111 108 107 101 111 124 142 143 148 141 137
119 128 136 127 146 121 136 130 138 183 124 119 103 107 116 118 98 114 119 120 133 115 114 83 75 83 76 98 115 118 115 115 110 119 124 120 121 111 115 125 155 159 161
137 146 127 137 147 138 136 132 164 147 111 124 114 101 102 93 87 74 69 90 149 131 120 105 96 91 97 93 96 111 101 108 113 115 122 130 128 132 126 118 116 139 188
129 114 118 98 128 125 139 156 135 144 148 149 135 129 122 115 91 70 63 76 129 124 107 103 112 99 100 94 116 114 112 115 122 128 132 135 136 140 130 114 129 173 248
123 120 110 102 113 125 161 142 179 170 165 145 135 132 121 130 130 140 124 91 80 87 102 97 93 91 88 117 122 116 123 130 133 135 141 140 131 146 160 165 167 182 213
128 114 118 117 106 84 64 6 77 58 306 148 137 144 137 152 143 111 130 118 109 112 113 103 98 114 131 148 137 126 129 133 142 147 151 155 154 164 175 175 194 181 202
131 137 151 140 151 132 119 89 39 39 32 72 141 142 131 120 103 106 105 111 126 141 105 108 115 126 129 146 127 135 147 152 154 158 162 166 155 171 180 189 217 203 212
152 153 163 148 149 145 138 129 113 62 66 50 58 102 112 125 120 122 126 129 134 104 114 115 125 144 149 149 140 160 158 171 161 160 163 176 170 181 182 182 191 208 239
144 175 146 147 156 145 140 134 137 142 120 91 39 71 91 117 126 133 133 127 158 182 140 146 153 166 175 189 166 184 168 168 169 170 170 180 184 192 191 196 199 206 219
171 135 116 136 139 132 123 115 118 134 113 114 111 70 62 76 98 143 172 158 167 155 149 149 159 177 204 213 183 162 154 168 175 174 189 196 206 206 203 214 198 214 208
97 89 83 129 135 134 134 130 149 134 134 137 135 134 133 128 143 165 210 239 194 161 168 157 173 183 211 205 174 163 177 180 186 182 199 216 218 203 222 213 213 231 203
140 138 183 158 139 145 147 150 145 141 141 143 133 147 163 146 154 170 198 215 213 163 144 163 170 187 193 200 161 166 176 184 186 191 208 214 234 240 248 238 247 210 214
185 155 189 139 148 158 160 163 158 155 148 128 131 153 170 148 170 186 197 199 212 202 172 181 188 198 179 184 180 186 191 202 205 203 210 220 219 227 228 211 225 237 244
348 172 87 98 181 159 174 166 162 156 135 133 140 147 177 195 193 198 212 195 58 25 20 46 34 31 36 36 38 33 30 358 324 229 220 237 236 258 243 223 223 235 243
12 316 124 57 210 126 74 50 113 92 49 125 128 154 107 78 70 66 66 65 64 61 63 65 62 56 52 54 40 39 25 359 344 342 340 337 278 227 235 237 238 236 237
39 30 71 79 48 71 87 75 69 79 77 73 71 75 76 66 67 65 80 69 67 61 60 52 52 52 47 41 29 23 4 356 10 333 357 7 359 356 355 348 352 350 347
57 48 55 49 58 66 71 64 66 66 67 65 62 55 61 62 57 51 52 55 61 62 63 57 51 53 55 44 30 17 7 10 16 10 25 37 33 28 5 8 7 2 3